[[{"header":{"parameterUnit":"m.s-1","parameterCategory":1,"la1":30.2991,"la2":30.254,"lo1":-89.0895,"lo2":-89.0444,"dy":0.0017,"dx":0.0017,"nx":28,"ny":28,"refTime":"2025-05-28T21:00:00:Z","depth":0,"parameterNumber":2,"parameterNumberName":"U-component_of_WINDS"},"data":[0,0,0,0,0,0,0,0,0,0,0,0,0,0,0,0,0,0,0,0,0,0,0,0,0,0,0,0,0,0,0,0,0,0,0,0,0,0,0,0,0,0,0,0,0,0,0,0,0,0,0,0,0,0,0,0,0,0,0.5305,0.5306,0,0.5327,0.5327,0.5327,0.5306,0.5305,0.5304,0.5303,0.5326,0.5328,0.5329,0,0,0,0,0,0,0,0,0,0,0,0,0,0.5246,0.5247,0.5305,0.5306,0.5306,0.5327,0.5327,0.5328,0.5306,0.5305,0.5304,0.5303,0.5326,0.5327,0.5329,0,0,0,0,0,0,0,0,0,0,0,0,0,0.527,0.5247,0.5305,0.5298,0.5297,0.5327,0.5327,0.5328,0.5306,0.5305,0.5303,0.5302,0.5325,0.5327,0.5329,0.5368,0,0,0.5336,0.5337,0,0,0,0,0,0,0,0,0.5268,0.5272,0.5298,0.5298,0.5298,0.5312,0.5315,0.5341,0.5306,0.5303,0.5303,0.5302,0.5323,0.5325,0.5332,0.5369,0.537,0.5336,0.5337,0.5338,0.5339,0,0,0,0,0,0,0,0.5267,0.5271,0.5314,0.5299,0.5298,0.5293,0.5295,0.532,0.532,0.5303,0.5301,0.5304,0.5322,0.533,0.5332,0.5371,0.5336,0.5338,0.5339,0.534,0.5439,0.5441,0,0,0,0,0,0,0.5266,0.527,0.5313,0.5315,0.528,0.5295,0.5297,0.5309,0.5319,0.532,0.5305,0.5303,0.5327,0.533,0.5333,0.5378,0.5338,0.534,0.5341,0.5438,0.544,0.5441,0,0,0,0,0,0,0.5265,0.527,0.5312,0.5292,0.5297,0.5298,0.5311,0.531,0.5318,0.5321,0.5321,0.5313,0.5326,0.533,0.5359,0.5378,0.5341,0.5343,0.5436,0.5439,0.5441,0.5469,0,0,0,0,0,0,0.5263,0.527,0.5285,0.5292,0.5298,0.5338,0.5312,0.5311,0.5321,0.5318,0.5328,0.5329,0.5325,0.5356,0.5361,0.5381,0.5345,0.5435,0.5437,0.544,0.5466,0.5472,0.5476,0,0,0,0,0,0.5261,0.5292,0.5285,0.5291,0.5316,0.534,0.5343,0.5338,0.5323,0.5338,0.534,0.5328,0.5376,0.5359,0.5365,0.5385,0.5434,0.5437,0.544,0.5464,0.5471,0.5476,0,0,0,0,0,0,0.5288,0.5293,0.5286,0.532,0.5329,0.5336,0.5354,0.5345,0.5359,0.5356,0.535,0.5352,0.5383,0.5387,0.5369,0.5423,0.5402,0.5406,0.5419,0.5425,0.543,0.5428,0.5347,0,0,0,0,0,0.5297,0.5315,0.5319,0.535,0.5355,0.5354,0.5364,0.5359,0.5368,0.5372,0.5376,0.5386,0.5403,0.5414,0.543,0.5467,0.5468,0.5484,0.5489,0.5493,0.5496,0.5515,0.5521,0.5451,0.5451,0.5451,0,0,0.5318,0.5323,0.5335,0.5355,0.5362,0.538,0.5357,0.5378,0.5392,0.5376,0.5403,0.5406,0.5417,0.5449,0.5464,0.5454,0.5516,0.5497,0.55,0.5501,0.5519,0.5525,0.5531,0.5453,0.5453,0.5453,0,0,0.5365,0.5371,0.5396,0.5403,0.5413,0.5412,0.5418,0.5425,0.5427,0.5454,0.5441,0.5458,0.5487,0.5495,0.5503,0.5551,0.5541,0.5556,0.5583,0.56,0.5606,0.5611,0.5627,0.5633,0.556,0.556,0.556,0,0.5389,0.5416,0.541,0.5432,0.544,0.5426,0.5451,0.5458,0.5473,0.5479,0.5467,0.5503,0.5509,0.5543,0.5554,0.5562,0.5568,0.5555,0.5606,0.561,0.5615,0.563,0.5636,0.5562,0.5562,0.5562,0.5561,0,0.5445,0.5464,0.5484,0.5497,0.5508,0.5532,0.5529,0.554,0.5535,0.5535,0.5562,0.5569,0.5585,0.5593,0.5588,0.5626,0.5619,0.5607,0.5586,0.5623,0.5638,0.5644,0.5564,0.5564,0.5563,0.5563,0,0,0.551,0.5519,0.5526,0.5531,0.5541,0.5555,0.5578,0.5593,0.5603,0.5613,0.5631,0.5656,0.5644,0.5653,0.5649,0.5665,0.5701,0.565,0.5651,0.5659,0.5742,0.575,0.5757,0.5695,0.5696,0.5697,0.574,0,0.5556,0.5594,0.5588,0.5625,0.5642,0.5628,0.5647,0.5655,0.5656,0.567,0.5671,0.5688,0.5672,0.5677,0.5692,0.5693,0.5718,0.569,0.5711,0.5712,0.5708,0.5765,0.5774,0.5815,0.5746,0.5747,0.5748,0,0.5614,0.5626,0.5664,0.567,0.5677,0.5694,0.5707,0.5721,0.573,0.5729,0.5738,0.573,0.5752,0.5731,0.5761,0.5743,0.5751,0.5752,0.5754,0.5755,0.5732,0.5767,0.5828,0.5834,0.5757,0.5756,0.5755,0,0.5656,0.5682,0.5707,0.5713,0.572,0.5732,0.5736,0.5743,0.5752,0.5764,0.5769,0.5783,0.5791,0.5802,0.5798,0.5783,0.5828,0.5807,0.5828,0.5828,0.5837,0.5837,0.59,0.5844,0.5844,0.5844,0.5844,0,0.5707,0.5731,0.5726,0.5742,0.5767,0.5761,0.5787,0.5789,0.5795,0.581,0.58,0.5814,0.5809,0.5824,0.5821,0.5845,0.5849,0.5849,0.5847,0.5849,0.5849,0.5854,0.5851,0.5846,0.5845,0.5845,0.5845,0,0.5758,0.5756,0.5782,0.5787,0.5789,0.5807,0.5811,0.5826,0.5825,0.5845,0.5849,0.5849,0.5865,0.5862,0.5881,0.5879,0.5909,0.5905,0.5906,0.5905,0.5925,0.5923,0.5993,0.6002,0.5941,0.5942,0.5942,0,0.5791,0.5808,0.5814,0.5824,0.5828,0.5844,0.5853,0.5847,0.5857,0.5867,0.588,0.5895,0.5907,0.5934,0.5935,0.5949,0.5945,0.5968,0.5947,0.5947,0.5944,0.5942,0.5943,0.5972,0.5973,0.5974,0.5974,0,0.5848,0.5846,0.5859,0.5872,0.5882,0.5892,0.5901,0.5909,0.5904,0.5915,0.5932,0.5941,0.5959,0.5974,0.5987,0.5991,0.5981,0.5981,0.5986,0.5988,0.5987,0.5987,0.5917,0.5979,0.5979,0.5978,0.5978,0.5978,0.589,0.5905,0.5911,0.5925,0.5931,0.5939,0.5953,0.5954,0.5967,0.5981,0.5977,0.5995,0.6002,0.6018,0.6023,0.6037,0.6028,0.6036,0.6038,0.604,0.6042,0.5985,0.604,0.6039,0.6039,0.6039,0.6039,0,0.5946,0.5949,0.5963,0.5975,0.5986,0.5976,0.5985,0.5995,0.6011,0.6018,0.603,0.6048,0.6062,0.6064,0.6078,0.6089,0.6084,0.6092,0.6091,0.6092,0.605,0.6043,0.6095,0.6095,0.6095,0.6095,0.6095,0.6095,0.5977,0.6,0.5998,0.6024,0.6027,0.6045,0.605,0.6058,0.6063,0.6084,0.6095,0.6096,0.6101,0.6115,0.6127,0.6127,0.6132,0.6142,0.614,0.61,0.6095,0.609,0.6083,0.6143,0.6143,0.6181,0.6181,0.6181]},{"header":{"parameterUnit":"m.s-1","parameterCategory":1,"la1":30.2991,"la2":30.254,"lo1":-89.0895,"lo2":-89.0444,"dy":0.0017,"dx":0.0017,"nx":28,"ny":28,"refTime":"2025-05-28T21:00:00:Z","depth":0,"parameterNumber":3,"parameterNumberName":"V-component_of_WINDS"},"data":[0,0,0,0,0,0,0,0,0,0,0,0,0,0,0,0,0,0,0,0,0,0,0,0,0,0,0,0,0,0,0,0,0,0,0,0,0,0,0,0,0,0,0,0,0,0,0,0,0,0,0,0,0,0,0,0,0,0,7.0648,7.0649,0,7.0724,7.0724,7.0725,7.0664,7.0662,7.0659,7.0657,7.0726,7.073,7.0734,0,0,0,0,0,0,0,0,0,0,0,0,0,7.0441,7.0445,7.0648,7.0649,7.065,7.0723,7.0725,7.0726,7.0665,7.0661,7.0658,7.0655,7.0724,7.0729,7.0734,0,0,0,0,0,0,0,0,0,0,0,0,0,7.0525,7.0446,7.0648,7.0628,7.0627,7.0723,7.0725,7.0726,7.0665,7.0661,7.0657,7.0654,7.0723,7.0729,7.0735,7.0851,0,0,7.0754,7.0757,0,0,0,0,0,0,0,0,7.052,7.0533,7.063,7.063,7.0629,7.0681,7.0677,7.0768,7.0666,7.0651,7.0656,7.0652,7.0713,7.072,7.0742,7.0854,7.0857,7.0755,7.0759,7.0762,7.0763,0,0,0,0,0,0,0,7.0515,7.0529,7.0677,7.0632,7.0631,7.0613,7.0621,7.0694,7.0702,7.0652,7.0647,7.0658,7.0712,7.0737,7.0744,7.0858,7.0755,7.076,7.0764,7.0767,7.1067,7.1071,0,0,0,0,0,0,7.0512,7.0524,7.0675,7.068,7.0564,7.062,7.0628,7.0668,7.0701,7.0703,7.0661,7.0655,7.0728,7.0736,7.0746,7.0883,7.0761,7.0767,7.0771,7.1063,7.1068,7.1073,0,0,0,0,0,0,7.0508,7.0526,7.0672,7.0601,7.0618,7.0628,7.0672,7.0671,7.0696,7.0709,7.0709,7.0685,7.0725,7.0737,7.0826,7.0884,7.077,7.0776,7.1058,7.1065,7.107,7.1158,0,0,0,0,0,0,7.0502,7.0525,7.0571,7.0603,7.0622,7.0753,7.0676,7.0676,7.0708,7.07,7.0731,7.0732,7.0723,7.0816,7.0832,7.0891,7.0781,7.1053,7.1061,7.1068,7.115,7.1166,7.1181,0,0,0,0,0,7.0495,7.0591,7.0574,7.0592,7.0681,7.0757,7.0768,7.0757,7.0713,7.0758,7.0766,7.0731,7.0876,7.0826,7.0843,7.0905,7.1049,7.1059,7.1068,7.1143,7.1163,7.118,0,0,0,0,0,0,7.0563,7.0595,7.0576,7.0686,7.072,7.0747,7.0803,7.0779,7.0824,7.0814,7.0797,7.0804,7.0897,7.091,7.0854,7.1018,7.0955,7.0968,7.1006,7.1026,7.1041,7.1035,7.0786,0,0,0,0,0,7.0592,7.0654,7.0677,7.0772,7.079,7.0794,7.0827,7.0816,7.0848,7.0861,7.0876,7.0906,7.0958,7.0993,7.1041,7.1152,7.1156,7.1202,7.1218,7.123,7.1241,7.1299,7.1319,7.1103,7.1103,7.1103,0,0,7.065,7.0675,7.0715,7.0786,7.0811,7.0872,7.0806,7.0874,7.0919,7.0871,7.0956,7.0968,7.1,7.11,7.1145,7.1113,7.1302,7.1242,7.1252,7.1256,7.131,7.1331,7.1349,7.111,7.1109,7.1108,0,0,7.0787,7.0814,7.0895,7.0922,7.0961,7.0963,7.0983,7.1014,7.1021,7.1107,7.1071,7.1123,7.1213,7.1238,7.1262,7.1409,7.1378,7.1425,7.1505,7.1561,7.1578,7.1592,7.1643,7.1661,7.1436,7.1436,7.1437,0,7.0854,7.0949,7.0939,7.1011,7.1042,7.1004,7.1085,7.111,7.1162,7.1183,7.1148,7.126,7.128,7.1384,7.142,7.1441,7.1461,7.142,7.1577,7.1591,7.1605,7.1653,7.1672,7.1442,7.1441,7.1441,7.144,0,7.1027,7.1093,7.1154,7.1208,7.1246,7.1321,7.132,7.136,7.1346,7.135,7.1437,7.1459,7.1511,7.1535,7.1521,7.1637,7.1616,7.158,7.1515,7.1631,7.1675,7.1694,7.1449,7.1448,7.1446,7.1445,0,0,7.1209,7.1258,7.128,7.1304,7.1344,7.1393,7.1466,7.152,7.1552,7.1589,7.1647,7.1725,7.1692,7.1719,7.1707,7.1757,7.1869,7.1713,7.1714,7.174,7.1996,7.2022,7.2044,7.185,7.1854,7.1856,7.1992,0,7.1347,7.1476,7.147,7.159,7.1649,7.1614,7.1677,7.1707,7.1714,7.1762,7.1768,7.1823,7.1775,7.1791,7.1839,7.1846,7.192,7.1836,7.1901,7.1903,7.1892,7.2067,7.2095,7.2223,7.201,7.2013,7.2015,0,7.1525,7.1571,7.1698,7.1729,7.1753,7.181,7.1858,7.1906,7.1939,7.1939,7.1971,7.1951,7.2021,7.1957,7.2052,7.1995,7.2021,7.2028,7.2033,7.2037,7.1965,7.2074,7.2263,7.2282,7.2043,7.204,7.2038,0,7.1642,7.1735,7.1823,7.1844,7.1884,7.1924,7.1942,7.1971,7.2003,7.2044,7.2064,7.2112,7.2138,7.2174,7.2166,7.2121,7.2262,7.2198,7.2262,7.2262,7.2291,7.2289,7.2486,7.2312,7.2312,7.2311,7.2311,0,7.1795,7.1874,7.1876,7.193,7.2015,7.2006,7.209,7.2103,7.2129,7.2182,7.2154,7.2204,7.2192,7.2241,7.2235,7.2313,7.2325,7.2326,7.2323,7.2327,7.2327,7.2342,7.2332,7.2317,7.2315,7.2314,7.2314,0,7.194,7.1945,7.2038,7.2069,7.2078,7.214,7.2164,7.2213,7.2218,7.2285,7.23,7.2306,7.2362,7.2359,7.2421,7.2417,7.2513,7.25,7.2503,7.2499,7.2563,7.2556,7.2775,7.2802,7.2612,7.2614,7.2616,0,7.2037,7.2097,7.2134,7.2169,7.219,7.2247,7.228,7.2273,7.2308,7.235,7.2393,7.2447,7.249,7.258,7.2588,7.2635,7.2622,7.2696,7.2629,7.2631,7.2621,7.2617,7.2621,7.2708,7.271,7.2712,7.2713,0,7.2207,7.2207,7.2258,7.231,7.2352,7.2392,7.2428,7.2458,7.2454,7.2494,7.2553,7.2586,7.2651,7.2703,7.2748,7.2763,7.2737,7.2735,7.2752,7.2756,7.2754,7.2754,7.2536,7.2729,7.2727,7.2726,7.2725,7.2725,7.2329,7.238,7.2415,7.2472,7.25,7.2534,7.2582,7.2594,7.2643,7.2697,7.2689,7.2753,7.2782,7.2841,7.286,7.2908,7.2881,7.2906,7.2912,7.2918,7.2925,7.2748,7.2916,7.2916,7.2915,7.2915,7.2915,0,7.2496,7.2517,7.2571,7.2624,7.2668,7.2644,7.2682,7.272,7.2778,7.2809,7.2853,7.2918,7.2969,7.2982,7.3031,7.3067,7.3056,7.3079,7.3075,7.3079,7.2947,7.2926,7.3087,7.3087,7.3087,7.3087,7.3087,7.3087,7.2588,7.2673,7.2677,7.2774,7.2793,7.2859,7.2883,7.2914,7.2938,7.3014,7.3058,7.3067,7.309,7.314,7.3184,7.3186,7.3204,7.3233,7.323,7.3106,7.3088,7.3072,7.3052,7.3237,7.3237,7.3357,7.3359,7.3359]}]]